Stations météo

Publicité
Socoa, France (7600): Température de l'air & dewpoint: 14.04.2019 15:00:00 - 20.04.2019 15:00:00 (CEST)Socoa, France (7600): Vitesse du vent & gusts: 14.04.2019 15:00:00 - 20.04.2019 15:00:00 (CEST)Socoa, France (7600): Direction du vent: 14.04.2019 15:00:00 - 20.04.2019 15:00:00 (CEST)Socoa, France (7600): reduced air pressure: 14.04.2019 15:00:00 - 20.04.2019 15:00:00 (CEST)Socoa, France (7600): visibility: 14.04.2019 15:00:00 - 20.04.2019 15:00:00 (CEST)Socoa, France (7600): Quantités de précipitations: 14.04.2019 15:00:00 - 20.04.2019 15:00:00 (CEST)
Date & Time tt [°C] td [°C] ff [km/h] ff [knt] fx [km/h] fx [knt] dd ppp [hPa] vv [km] rr [mm]
20.04.2019 15:00:00 - - - - - - - - - -
20.04.2019 14:00:00 16,9 10,3 17 9 29 16 WNW 1022,0 - 0,0
20.04.2019 13:00:00 16,6 11,5 23 12 37 20 WNW 1022,3 - 0,0
20.04.2019 12:00:00 16,4 12,0 28 15 36 19 W 1022,6 - 0,0
20.04.2019 11:00:00 15,7 12,1 26 14 36 20 W 1022,7 - 0,0
20.04.2019 10:00:00 15,5 11,7 19 11 30 16 W 1023,1 - 0,0
20.04.2019 09:00:00 13,5 10,8 16 8 27 15 SW 1023,1 - 0,0
20.04.2019 08:00:00 11,3 10,0 15 8 22 12 SW 1023,1 - 0,0
20.04.2019 07:00:00 9,7 8,3 13 7 19 10 SW 1023,0 - 0,0
20.04.2019 06:00:00 9,6 8,0 10 5 14 7 SW 1023,1 - 0,0
20.04.2019 05:00:00 10,4 8,8 9 5 11 6 SSW 1023,5 20 0,0
20.04.2019 04:00:00 11,0 9,3 8 4 10 6 SW 1023,5 - 0,0
20.04.2019 03:00:00 11,7 9,6 4 2 11 6 W 1023,7 - 0,0
20.04.2019 02:00:00 12,6 10,3 7 4 13 7 W 1023,8 18 0,0
20.04.2019 01:00:00 13,3 11,0 6 4 18 10 WSW 1024,2 - 0,0
20.04.2019 00:00:00 14,3 12,0 11 6 15 8 SSW 1024,5 - 0,0
19.04.2019 23:00:00 14,9 12,2 4 2 10 5 SW 1024,7 18 0,0
19.04.2019 22:00:00 15,2 12,5 6 4 10 6 NNW 1024,0 - 0,0
19.04.2019 21:00:00 15,3 11,3 7 4 11 6 W 1022,9 - 0,0
19.04.2019 20:00:00 16,5 11,8 9 5 13 7 WSW 1022,0 15 0,0
19.04.2019 19:00:00 17,5 12,6 3 2 8 4 WNW 1021,7 - 0,0
19.04.2019 18:00:00 18,3 13,6 5 3 9 5 NW 1021,4 - 0,0
19.04.2019 17:00:00 18,2 13,3 6 3 9 5 NW 1021,4 15 0,0
19.04.2019 16:00:00 18,0 12,9 5 3 12 7 NNW 1021,6 - 0,0
19.04.2019 15:00:00 18,1 12,8 4 2 14 8 NNE 1021,6 - 0,0
19.04.2019 14:00:00 17,1 12,2 12 6 16 9 NE 1021,5 12 0,0
19.04.2019 13:00:00 17,0 12,1 9 5 11 6 N 1021,5 - 0,0
19.04.2019 12:00:00 15,9 12,5 6 3 12 6 NW 1020,9 - 0,0
19.04.2019 11:00:00 14,6 11,9 8 5 12 6 W 1020,5 12 0,0
19.04.2019 10:00:00 13,3 11,0 6 3 9 5 W 1019,9 - 0,0
19.04.2019 09:00:00 12,6 10,5 8 4 13 7 S 1019,3 - 0,0
19.04.2019 08:00:00 12,3 10,4 8 4 10 6 S 1019,2 - 0,0
19.04.2019 07:00:00 12,3 10,2 8 4 12 6 S 1018,7 - 0,0
19.04.2019 06:00:00 12,7 10,8 9 5 12 7 S 1017,9 - 0,0
19.04.2019 05:00:00 13,1 11,0 5 3 18 10 S 1017,7 16 0,0
19.04.2019 04:00:00 13,8 12,0 13 7 16 9 W 1017,2 - 0,0
19.04.2019 03:00:00 13,8 11,5 9 5 20 11 W 1017,6 - 0,0
19.04.2019 02:00:00 14,1 12,0 17 9 22 12 W 1017,6 20 0,0
19.04.2019 01:00:00 14,0 11,5 13 7 21 11 W 1017,4 - 0,0
19.04.2019 00:00:00 14,4 12,1 13 7 23 12 W 1017,3 - 0,0
18.04.2019 23:00:00 14,8 10,6 8 4 15 8 WSW 1016,9 18 0,0
18.04.2019 22:00:00 14,8 10,6 8 4 12 7 W 1016,2 - 0,0
18.04.2019 21:00:00 15,4 10,6 2 1 7 4 N 1015,8 - 0,0
18.04.2019 20:00:00 15,7 10,9 4 2 11 6 SSW 1015,5 - 0,0
18.04.2019 19:00:00 15,9 11,7 10 5 22 12 N 1015,3 - 0,0
18.04.2019 18:00:00 16,1 11,3 19 10 27 15 NNW 1015,6 - 0,0
18.04.2019 17:00:00 18,4 13,0 13 7 23 13 NW 1015,7 15 0,0
18.04.2019 16:00:00 18,4 12,8 11 6 19 10 W 1015,5 - 0,0
18.04.2019 15:00:00 18,9 12,2 7 4 18 10 WNW 1015,5 - 0,0
18.04.2019 14:00:00 16,5 12,6 2 1 13 7 E 1015,2 12 0,2
18.04.2019 13:00:00 15,5 11,3 4 2 7 4 SW 1015,4 - 0,0
18.04.2019 12:00:00 16,1 11,5 6 3 27 15 NNW 1015,6 - 0,0
18.04.2019 11:00:00 17,0 10,4 19 10 30 16 W 1014,6 - 0,0
18.04.2019 10:00:00 17,9 6,4 9 5 36 19 SSE 1013,9 - 0,0
18.04.2019 09:00:00 17,9 5,8 16 9 32 18 SSE 1013,1 - 0,0
18.04.2019 08:00:00 18,8 4,9 13 7 55 30 SSE 1012,3 - 0,0
18.04.2019 07:00:00 18,9 5,0 27 15 62 33 S 1010,8 - 0,0
18.04.2019 06:00:00 18,4 5,6 9 5 26 14 E 1011,5 - 0,0
18.04.2019 05:00:00 19,0 6,1 11 6 51 27 SSE 1011,2 20 0,0
18.04.2019 04:00:00 19,4 7,5 26 14 54 29 SSE 1011,1 - 0,0
18.04.2019 03:00:00 17,3 10,2 9 5 44 24 E 1011,7 - 0,0
18.04.2019 02:00:00 19,7 8,4 27 15 40 22 S 1011,5 20 0,0
18.04.2019 01:00:00 20,3 9,2 20 11 39 21 S 1011,5 - 0,0
18.04.2019 00:00:00 17,7 12,2 8 5 23 13 SE 1011,3 - 0,0
17.04.2019 23:00:00 18,0 12,4 19 10 25 13 ESE 1010,3 20 0,0
17.04.2019 22:00:00 18,4 12,6 18 10 28 15 E 1009,3 - 0,0
17.04.2019 21:00:00 19,3 12,8 19 11 35 19 E 1009,1 - 0,0
17.04.2019 20:00:00 20,0 12,7 22 12 35 19 E 1008,2 18 0,0
17.04.2019 19:00:00 21,0 12,7 23 12 35 19 E 1008,4 - 0,0
17.04.2019 18:00:00 20,7 13,2 25 13 35 19 NE 1008,9 - 0,0
17.04.2019 17:00:00 21,6 13,0 9 5 27 15 NE 1009,3 18 0,0
17.04.2019 16:00:00 21,7 12,3 8 4 32 17 ENE 1009,9 - 0,0
17.04.2019 15:00:00 22,3 12,0 11 6 30 16 NE 1010,3 - 0,0
17.04.2019 14:00:00 23,4 7,9 15 8 25 13 S 1010,7 18 0,0
17.04.2019 13:00:00 20,9 11,2 6 3 16 8 S 1011,6 - 0,0
17.04.2019 12:00:00 17,9 10,3 8 4 24 13 NE 1012,2 - 0,0
17.04.2019 11:00:00 18,7 6,5 19 11 37 20 S 1012,1 18 0,0
17.04.2019 10:00:00 18,7 6,2 14 7 34 18 S 1012,0 - 0,0
17.04.2019 09:00:00 19,1 6,6 18 10 53 29 SSE 1011,9 - 0,0
17.04.2019 08:00:00 17,0 5,9 19 10 43 23 SSE 1012,1 - 0,0
17.04.2019 07:00:00 16,9 5,5 14 8 43 23 SE 1012,3 - 0,0
17.04.2019 06:00:00 17,2 5,5 18 10 30 16 SSE 1012,1 - 0,0
17.04.2019 05:00:00 17,1 6,0 13 7 28 15 SSE 1012,8 - 0,0
17.04.2019 04:00:00 14,0 8,4 14 7 26 14 ENE 1013,5 - 0,0
17.04.2019 03:00:00 12,7 8,8 13 7 21 11 ENE 1014,2 - 0,0
17.04.2019 02:00:00 12,7 9,1 4 2 18 10 NNE 1014,8 20 0,0
17.04.2019 01:00:00 14,2 8,8 16 9 28 15 E 1015,1 - 0,0
17.04.2019 00:00:00 14,9 9,0 18 10 30 16 E 1015,6 - 0,0
16.04.2019 23:00:00 15,3 8,8 24 13 38 20 ESE 1015,9 18 0,0
16.04.2019 22:00:00 16,0 9,0 19 10 41 22 E 1016,2 - 0,0
16.04.2019 21:00:00 17,0 8,4 26 14 40 22 E 1016,0 - 0,0
16.04.2019 20:00:00 18,0 8,3 30 16 45 24 E 1016,1 - 0,0
16.04.2019 19:00:00 15,9 11,3 24 13 40 21 NE 1016,5 - 0,0
16.04.2019 18:00:00 16,5 11,4 30 16 39 21 NE 1017,3 - 0,0
16.04.2019 17:00:00 17,0 11,3 24 13 37 20 NNE 1017,9 20 0,0
16.04.2019 16:00:00 17,1 11,6 22 12 34 18 NNE 1018,7 - 0,0
16.04.2019 15:00:00 16,0 11,0 24 13 29 16 NNE 1019,4 - 0,0
16.04.2019 14:00:00 15,6 10,4 20 11 23 12 NNE 1020,1 20 0,0
16.04.2019 13:00:00 16,1 9,7 13 7 18 10 N 1020,6 - 0,0
16.04.2019 12:00:00 16,9 10,0 9 5 11 6 N 1021,2 - 0,0
16.04.2019 11:00:00 14,9 8,8 5 3 8 5 N 1021,2 18 0,0
16.04.2019 10:00:00 13,0 9,6 5 3 13 7 S 1021,3 - 0,2
16.04.2019 09:00:00 11,5 9,7 10 5 22 12 SSW 1021,1 - 0,0
16.04.2019 08:00:00 11,0 9,6 8 4 13 7 SSW 1020,3 - 0,0
16.04.2019 07:00:00 11,2 9,8 8 4 28 15 S 1020,1 - 0,0
16.04.2019 06:00:00 11,4 10,0 19 10 38 20 WSW 1019,7 - 0,2
16.04.2019 05:00:00 12,0 9,7 24 13 39 21 W 1019,4 16 0,2
16.04.2019 04:00:00 12,0 10,2 17 9 27 15 WSW 1019,2 - 0,6
16.04.2019 03:00:00 11,9 10,0 11 6 25 13 SSW 1019,0 - 0,0
16.04.2019 02:00:00 12,2 10,6 13 7 29 16 SW 1019,0 16 0,0
16.04.2019 01:00:00 12,2 10,6 18 10 29 16 SW 1018,8 - 0,6
16.04.2019 00:00:00 12,5 11,2 16 9 23 12 SSW 1018,1 - 0,8
15.04.2019 23:00:00 12,8 11,4 12 6 24 13 SSW 1017,5 8 0,6
15.04.2019 22:00:00 13,0 11,7 11 6 52 28 SSW 1016,5 - 2,6
15.04.2019 21:00:00 13,3 11,9 33 18 73 39 WSW 1015,5 - 4,0
15.04.2019 20:00:00 13,9 12,8 47 25 69 37 WSW 1013,1 6 3,3
15.04.2019 19:00:00 15,3 14,0 27 15 75 41 WSW 1012,1 - 8,7
15.04.2019 18:00:00 16,6 12,3 62 33 100 54 W 1009,5 - 0,0
15.04.2019 17:00:00 23,2 11,9 11 6 16 9 NE 1006,4 16 0,0
15.04.2019 16:00:00 24,4 11,0 10 6 29 16 E 1007,2 - 0,0
15.04.2019 15:00:00 23,5 10,9 10 5 26 14 S 1007,9 - 0,0
15.04.2019 14:00:00 23,8 10,8 10 5 52 28 S 1008,5 18 0,0
15.04.2019 13:00:00 24,1 10,4 18 10 45 24 SSE 1008,7 - 0,0
15.04.2019 12:00:00 22,7 9,8 34 18 54 29 SE 1009,2 - 0,0
15.04.2019 11:00:00 21,4 9,9 23 12 42 23 SSE 1009,9 18 0,0
15.04.2019 10:00:00 17,6 10,5 21 11 40 22 S 1010,9 - 0,0
15.04.2019 09:00:00 13,2 9,8 20 11 27 15 ESE 1011,1 - 0,0
15.04.2019 08:00:00 11,2 9,1 15 8 24 13 ESE 1011,9 13 0,0
15.04.2019 07:00:00 10,9 8,6 11 6 19 10 SE 1012,4 - 0,0
15.04.2019 06:00:00 11,1 8,8 14 8 21 11 ESE 1012,9 - 0,0
15.04.2019 05:00:00 10,9 8,5 11 6 18 10 SE 1013,4 18 0,0
15.04.2019 04:00:00 11,3 8,9 12 6 23 12 ESE 1014,3 - 0,0
15.04.2019 03:00:00 10,8 8,6 14 7 19 10 ESE 1015,2 - 0,0
15.04.2019 02:00:00 11,5 9,1 14 8 21 11 SE 1016,1 18 0,0
15.04.2019 01:00:00 10,7 8,6 8 5 16 9 SE 1017,0 - 0,0
15.04.2019 00:00:00 11,0 8,6 5 3 9 5 ESE 1017,5 - 0,0
14.04.2019 23:00:00 11,8 9,2 4 2 6 3 SE 1017,4 - 0,0
14.04.2019 22:00:00 12,7 9,3 3 1 19 10 ESE 1017,6 - 0,0
14.04.2019 21:00:00 14,2 10,6 5 3 16 9 ENE 1017,0 - 0,0
14.04.2019 20:00:00 15,6 9,9 6 3 10 6 NNE 1016,9 15 0,0
14.04.2019 19:00:00 16,8 10,4 5 3 12 6 NNW 1017,0 - 0,0
14.04.2019 18:00:00 16,9 8,8 5 3 10 5 SSW 1017,5 - 0,2
14.04.2019 17:00:00 15,4 7,9 2 1 15 8 N 1018,1 15 0,0
14.04.2019 16:00:00 13,9 8,1 12 7 23 12 N 1018,3 - 0,0
14.04.2019 15:00:00 15,5 8,7 8 4 14 7 N 1017,8 - 0,0

tt = Température de l'air
td = dewpoint
ff = Vitesse du vent
fx = gusts
dd = Direction du vent
ppp = reduced air pressure
vv = visibility
rr = Quantités de précipitations

stations d'obs. à proximité